Flag for Estonia Weather past 2 weeks in Tartu, Estonia

Now
54 °F

Fog.


Feels Like: 54 °F
Forecast: 49 / 65 °F
Wind: 1 mph from North

Location: Tartu/Ulenurme

Current Time: Sep 4, 2015 at 2:50:29 AM

Latest Report: Sep 4, 2015 at 1:50 AM


Visibility: 1 mi

Pressure: 29.92 "Hg

Humidity: 94%

Dew point: 52 °F

Location of TartuLocation

Historic Weather in Tartu — Graph

°F

Tartu temperature yesterday

Maximum temperature yesterday: 63 °F (at 5:50 PM)
Minimum temperature yesterday: 55 °F (at 12:50 AM)
Average temperature yesterday: 57 °F

Past Weeks' High & Low Weather Summary

 TemperatureHumidityPressure
High81 °F (Aug 25, 3:50 PM)100% (Aug 31, 5:50 AM)30.48 "Hg (Aug 31, 5:50 AM)
Low41 °F (Aug 20, 5:50 AM)34% (Aug 22, 4:50 PM)29.68 "Hg (Aug 28, 2:50 PM)
Average61 °F76%30.07 "Hg
* Reported Aug 20 1:50 AM — Sep 4 1:50 AM, Tartu, Weather by CustomWeather, © 2015

Note: Actual official high and low records may vary slightly from our data, if they occured in-between our weather recording intervals... More about our weather records

Advertising

Tartu weather history for previous 24 hours

 ConditionsComfort  
Time TempWeatherWind HumidityBarometerVisibility
1:50 AM
Fri, Sep 4
54 °FFog.1 mph94%29.92 "Hg1 mi
12:50 AM55 °FDrizzle. Mostly cloudy.No wind88%29.95 "HgN/A
11:50 PM
Thu, Sep 3
55 °FFog.No wind94%29.95 "HgN/A
10:50 PM55 °FFog.No wind94%29.92 "Hg6 mi
9:50 PM55 °FOvercast.2 mph94%29.92 "Hg3 mi
8:50 PM57 °FFog.3 mph88%29.92 "Hg1 mi
7:50 PM59 °FPartly sunny.5 mph88%29.92 "HgN/A
6:50 PM61 °FScattered clouds.5 mph83%29.92 "HgN/A
5:50 PM63 °FBroken clouds.3 mph73%29.92 "HgN/A
4:50 PM61 °FScattered clouds.5 mph83%29.92 "HgN/A
3:50 PM61 °FBroken clouds.3 mph83%29.92 "HgN/A
2:50 PM61 °FBroken clouds.5 mph83%29.89 "HgN/A
1:50 PM59 °FMostly cloudy.5 mph88%29.92 "HgN/A
12:50 PM59 °FMostly cloudy.3 mph88%29.89 "HgN/A
11:50 AM57 °FMostly cloudy.3 mph94%29.89 "HgN/A
10:50 AM57 °FLow clouds.No wind94%29.89 "HgN/A
9:50 AM55 °FDrizzle. Low clouds.3 mph100%29.86 "Hg3 mi
8:50 AM55 °FLow clouds.5 mph94%29.86 "HgN/A
7:50 AM55 °FDrizzle. Low clouds.5 mph94%29.83 "Hg3 mi
6:50 AM55 °FDrizzle. Dense fog.5 mph94%29.83 "Hg1 mi
5:50 AM55 °FFog.5 mph94%29.83 "Hg1 mi
4:50 AM55 °FFog.6 mph94%29.83 "Hg1 mi
3:50 AM55 °FDrizzle. Low clouds.6 mph94%29.83 "Hg1 mi
2:50 AM55 °FDrizzle. Low clouds.7 mph94%29.83 "Hg2 mi
Weather by CustomWeather, © 2015

See weather overviewHow to use our weather pages